Location: Newark
(33.6439°N, 114.9881°W)
Time: 14:38:11
(UTC+00:00)

Transit 2A Rocket - Pass Details

Date: 24 August 2019
Orbit: 592 x 911 km, 66.7° (Epoch: 16 September)

Event Time Altitude Azimuth Distance (km) Brightness Sun altitude
Rises 11:58:55 0° 329° (NNW) 2,933 8.0 -14.5°
Reaches altitude 10° 12:01:16 10° 326° (NW) 1,987 7.1 -14.0°
Maximum altitude 12:05:37 59° 247° (WSW) 690 4.5 -13.2°
Drops below altitude 10° 12:09:49 10° 168° (SSE) 1,913 7.0 -12.4°
Sets 12:12:02 0° 164° (SSE) 2,811 7.9 -12.0°
